Lid_Strength_Index
-1 -1 -1 -1 -1 -1 -1 -1 -1 -1 -1 -0 -0 -1 -1 -1 -1 0 4 1 -0 -2 -1 1 2 2 3 5 5 6 11 14 12 12 11 8 9 8 7 7 7 6 6 4 3
-1 -1 -1 -1 -1 -1 -1 -1 -1 -1 -1 -1 -0 -1 -1 -1 1 3 -1 -2 -2 -2 2 3 4 3 6 6 6 8 12 11 8 8 9 8 9 9 9 9 8 7 4 3 3
-0 -0 -1 -1 -1 -1 -1 -1 -1 -1 -1 -1 -1 -1 -1 -0 5 5 -1 -2 -2 -1 1 2 3 5 7 7 7 8 11 9 9 8 7 8 9 7 10 10 9 8 6 4 4
0 0 -0 -1 -1 -1 -1 -1 -1 -1 -1 -1 -1 -1 -1 2 16 3 -2 -2 -2 -0 1 3 5 8 8 9 7 11 8 8 7 7 7 9 7 8 8 9 7 7 4 4 4
0 0 0 -0 -1 -1 -1 -1 -1 -1 -1 -1 -1 -1 2 6 7 2 -1 -1 -0 1 3 4 6 7 9 8 8 10 9 7 7 7 7 7 8 8 8 6 5 6 5 5 4
1 0 0 -0 -1 -1 -1 -1 -1 -1 -1 -1 -1 -1 5 11 3 2 0 0 2 2 3 4 5 5 8 8 9 7 7 7 7 7 7 9 8 8 7 5 6 5 6 4 4
1 1 0 -0 -0 -1 -1 -1 -1 -1 -1 -1 -1 2 5 9 5 5 1 1 1 2 4 3 4 6 6 9 6 7 10 8 8 8 8 7 10 10 7 6 6 6 5 6 4
0 1 0 -0 -1 -1 -1 -1 -1 -1 -1 -1 -1 3 9 4 3 5 4 2 1 1 2 2 3 5 7 6 8 10 10 14 9 8 7 8 13 8 6 7 7 6 6 5 6
-0 0 0 -1 -1 -1 -1 -1 -1 -1 -2 -1 2 5 8 3 6 5 5 4 2 2 2 1 4 7 7 11 13 12 16 14 12 8 9 9 12 8 6 7 7 7 8 6 5
-0 -0 0 -1 -1 -1 -1 -1 -1 -1 -0 -0 2 6 7 9 6 6 5 5 4 4 6 6 7 10 10 12 17 16 15 13 13 10 9 10 11 8 7 7 7 7 8 8 6
0 0 -0 -1 -2 -2 -0 1 4 6 4 6 7 7 8 6 5 6 5 4 4 6 11 8 11 13 11 11 11 11 13 14 12 9 11 11 11 9 8 8 8 7 7 7 7
0 0 -0 -1 -1 -1 0 4 4 3 8 5 5 5 6 6 8 7 5 7 8 10 9 11 13 10 9 10 11 12 13 14 11 9 10 11 11 9 9 8 8 7 8 8 7
0 0 0 -1 -1 0 2 3 1 1 8 7 5 5 5 6 8 8 6 7 9 10 10 13 11 8 10 11 13 13 13 13 13 11 10 12 13 11 9 9 8 7 7 7 7
-1 -0 0 -1 1 2 3 1 0 1 12 11 9 6 5 5 9 5 5 6 9 10 10 11 8 10 11 12 11 15 10 11 12 14 17 12 18 13 11 9 9 8 8 7 7
-1 -1 -1 -1 2 4 2 0 1 3 20 10 8 3 5 7 8 8 5 6 10 10 10 12 11 11 12 11 10 13 10 11 12 14 16 15 17 14 11 11 10 9 8 7 7
-1 -0 -1 0 2 2 -0 0 3 14 20 13 9 9 9 8 8 7 7 5 6 10 9 10 8 9 10 9 9 9 11 13 13 14 19 14 16 15 12 11 10 8 8 8 8
-1 -1 -0 -0 5 1 1 4 14 18 12 13 12 10 10 11 10 9 10 11 12 15 14 12 11 9 8 12 10 10 13 19 20 20 20 14 16 14 10 10 9 9 8 9 8
-1 -1 -0 0 1 -0 3 10 18 13 13 10 11 10 13 11 10 10 11 13 10 11 13 16 17 11 9 11 13 13 13 18 22 21 19 14 18 14 9 7 6 7 8 8 8
-1 1 2 1 1 2 8 16 15 13 11 12 11 14 14 11 11 11 12 12 10 10 15 15 15 9 9 9 9 13 15 11 16 19 19 17 14 10 9 9 9 9 9 9 9
2 3 3 1 -0 3 10 14 12 9 9 10 15 12 15 13 13 13 13 11 11 9 10 12 16 11 9 9 9 11 10 16 16 22 23 18 18 16 13 11 10 11 10 9 9
3 7 4 -0 1 8 14 13 11 8 7 11 13 13 13 14 12 13 13 11 9 9 9 12 13 14 11 13 13 13 14 13 13 16 20 21 18 12 11 11 10 10 10 9 9
6 10 3 1 9 9 12 11 9 9 8 10 10 11 12 12 13 12 14 11 8 8 11 11 14 16 14 10 9 10 12 13 17 18 16 17 17 10 10 10 11 11 9 9 10
7 7 2 3 12 12 11 10 10 10 9 10 11 10 10 11 14 11 12 8 8 9 10 10 15 22 16 13 11 12 12 12 13 14 17 19 16 9 10 11 11 11 12 11 11
8 11 8 6 7 10 11 11 12 10 9 9 10 9 10 11 11 12 11 9 8 8 7 7 13 14 17 15 13 14 13 12 13 17 16 16 14 12 11 12 11 12 11 12 11
7 9 9 12 10 10 10 10 12 12 11 9 10 10 11 13 12 13 10 10 8 7 8 10 18 15 14 13 12 13 13 13 14 13 16 13 13 11 10 11 11 11 11 10 10
9 9 8 10 11 10 10 11 11 11 11 11 11 10 10 12 11 13 11 11 11 9 9 11 17 14 17 14 13 16 13 13 12 12 13 13 13 10 10 10 11 10 9 10 11
7 6 7 8 10 11 11 11 11 11 10 9 9 10 11 9 8 8 8 8 9 10 10 11 15 18 18 15 15 18 15 14 14 12 12 14 10 8 11 10 12 12 11 12 11